Location: Leo
(52.0556°N, 112.3605°W)
Time: 11:05:27
(UTC+00:00)

FO-29 - Pass Details

Date: 01 December 2023
Orbit: 799 x 1322 km, 98.6° (Epoch: 01 March)

Event Time Altitude Azimuth Distance (km) Brightness Sun altitude
Rises 12:51:38 0° 11° (N) 3,999 12.7 -21.1°
Reaches altitude 10° 12:54:42 10° 358° (N) 3,113 12.0 -20.6°
Enters shadow 12:59:33 23° 316° (NW) 2,371 11.0 -19.9°
